Regional Weather Roundup
Issued by NWS

Home | Current Version | Previous Version | Text Only | Print | Product List | Glossary On
Versions: 1 2 3 4 5 6 7 8 9 10 11 12 13 14 15 16 17 18 19 20 21 22 23 24 25 26 27 28 29 30 31 32 33 34 35 36 37 38 39 40 41 42 43 44 45 46 47 48 49 50
000
ASUS46 KLOX 290512
RWRCA

SOUTHERN CALIFORNIA WEATHER ROUNDUP
NATIONAL WEATHER SERVICE OXNARD CALIFORNIA
1000 PM PDT SAT MAR 28 2015

NOTE: "FAIR" INDICATES FEW OR NO CLOUDS BELOW 12,000 FEET WITH NO
SIGNIFICANT WEATHER AND/OR OBSTRUCTIONS TO VISIBILITY.

  -  STATIONS PRECEEDED BY AN ASTERISK (*) ARE NOT NWS OR FAA
     STATIONS AND ARE NOT SUBJECT TO NWS AND FAA QUALITY CONTROL.

CAZ041-042-087-290600-
LA AND ORANGE COUNTY COASTAL AREAS


CITY           SKY/WX    TMP DP  RH WIND       PRES   REMARKS
L.A. DOWNTOWN  CLEAR     63  58  83 CALM      30.04R
L.A. AIRPORT   PTCLDY    60  57  89 SW5       30.05R
LONG BEACH     PTCLDY    64  57  78 NW3       30.04R

CITY           SKY/WX    TMP DP  RH WIND       PRES   REMARKS
AVALON           N/A     57 N/A N/A MISG        N/A
FULLERTON      CLEAR     66  57  72 CALM      30.03R
*GETTY CENTER    N/A    N/A N/A N/A SW3         N/A
HAWTHORNE      CLEAR     63  58  83 SW3       30.05R
*LOS ALAMITOS  FAIR      62  58  86 CALM      30.04R
*REDONDO BEACH   N/A     60  56  88 CALM      30.05R
SANTA ANA      MOCLDY    62  58  86 S5        30.04R
STA MONICA APT CLEAR     62  58  86 SW3       30.04R
*UCLA            N/A     61  54  77 CALM      30.02R

$$

CAZ547-548-048-290600-
LA COUNTY VALLEYS AND INLAND EMPIRE


CITY           SKY/WX    TMP DP  RH WIND       PRES   REMARKS
BURBANK        CLEAR     69  54  58 CALM      30.04R
VAN NUYS       CLEAR     70  38  31 CALM      30.04R

CITY           SKY/WX    TMP DP  RH WIND       PRES   REMARKS
CORONA AIRPORT CLEAR     65  53  65 CALM      30.05R
*CHATSWORTH      N/A     67  34  29 CALM      30.03R
CHINO          CLEAR     63  49  60 SE5       30.05R
MARCH AFB      CLEAR     60  29  31 W2        30.07R
*NORTHRIDGE      N/A     66  32  28 NE1         N/A
ONTARIO        PTCLDY    68  48  48 E3        30.05R
*PASADENA        N/A     68  55  64 E1          N/A
RIVERSIDE      CLEAR     69  42  37 CALM      30.05R
SAN BERNARDINO NOT AVBL
*WHITEMAN AP   NOT AVBL
*WOODLAND HILL   N/A     63  39  42 S2          N/A

$$

CAZ054-055-290600-
LA AND SAN BERNARDINO COUNTY MOUNTAINS


CITY           SKY/WX    TMP DP  RH WIND       PRES   REMARKS
*BIG BEAR AIRP CLEAR     37  18  44 CALM      30.31S
*CHILAO          N/A     58  34  40 E10         N/A
MT WILSON NWS    N/A     54  12  19 S5          N/A
SANDBERG       CLEAR     61  35  37 NW8       30.20S
*WARM SPRINGS    N/A     61  31  32 W7          N/A

$$

CAZ028-029-059-060-099-290600-
ANTELOPE VALLEY AND SURROUNDING AREAS


CITY           SKY/WX    TMP DP  RH WIND       PRES   REMARKS
LANCASTER      CLEAR     65  37  35 W16       30.09R
PALMDALE       CLEAR     60  21  22 SW5       30.10R

CITY           SKY/WX    TMP DP  RH WIND       PRES   REMARKS
29 PALMS       CLEAR     74  22  14 W9        30.10R
BARSTOW/DAGGET CLEAR     75  23  14 W12       30.04R
BISHOP         CLEAR     66  12  12 N9        30.15R
CHINA LAKE     CLEAR     71  31  22 S14       30.01R
EDWARDS AFB    CLEAR     64  36  35 SW8       30.06R
MOJAVE         FAIR      66  36  32 W21G28    30.09R
NEEDLES        CLEAR     83  16   8 W12       29.95R
VICTORVILLE    CLEAR     66  23  19 SW5       30.11S

$$

CAZ039-040-290600-
VENTURA AND SANTA BARBARA COUNTY COAST


CITY           SKY/WX    TMP DP  RH WIND       PRES   REMARKS
CAMARILLO      CLEAR     60  55  83 NW3       30.03S
NWS OXNARD       N/A     60  55  83 CALM      30.03R
OXNARD AIRPORT CLEAR     61  57  87 W5        30.04R
*POINT MUGU    CLEAR     60  56  86 NW3       30.05R
SBA APT/GOLETA CLEAR     60  56  86 CALM      30.03R
*SANTA BARBARA   N/A     63  56  78 CALM      30.11S

$$

CAZ044-045-290600-
VENTURA COUNTY VALLEYS


CITY           SKY/WX    TMP DP  RH WIND       PRES   REMARKS
*SIMI VALLEY     N/A     63  47  57 CALM      29.99S
*OJAI            N/A     55  43  64 CALM      29.99S
*FILLMORE        N/A     59  48  68 CALM      29.95R

$$

CAZ053-290600-
VENTURA COUNTY MOUNTAINS


CITY           SKY/WX    TMP DP  RH WIND       PRES   REMARKS
*LOCKWOOD VLY    N/A     43  30  61 MISG        N/A
*ROSE VALLEY     N/A     46  39  76 MISG        N/A

$$

CAZ034-035-036-290600-
CENTRAL COAST AND SANTA YNEZ VALLEY


CITY           SKY/WX    TMP DP  RH WIND       PRES   REMARKS
SAN LUIS OBISP CLEAR     56  51  84 SE5       30.06R
SANTA MARIA    CLEAR     59  50  72 CALM      30.06R

CITY           SKY/WX    TMP DP  RH WIND       PRES   REMARKS
*CAL POLY SLO    N/A     57  48  72 CALM        N/A
*LOMPOC        CLEAR     54  46  76 CALM      30.06S
*PISMO BEACH     N/A     58  54  86 SW1       30.05R
*SANTA YNEZ    FAIR      55  43  62 CALM      30.06R

$$

CAZ037-038-051-290600-
SAN LUIS OBISPO COUNTY INTERIOR AND CUYAMA VALLEY


CITY           SKY/WX    TMP DP  RH WIND       PRES   REMARKS
*CUYAMA          N/A     62  39  43 CALM      30.06R
PASO ROBLES    PTCLDY    66  46  48 NW6       30.08R

$$

CAZ032-033-061-290600-
SOUTHERN DESERTS


CITY           SKY/WX    TMP DP  RH WIND       PRES   REMARKS
BLYTHE         CLEAR     79  30  16 W10       29.93R
IMPERIAL       PTCLDY    79  38  22 W8        29.91R
PALM SPRINGS   CLEAR     86  29  12 NW13      29.96R
THERMAL        CLEAR     83  33  16 N10       29.90R

$$

ELSEWHERE ACROSS THE WESTERN UNITED STATES AND MEXICO


CITY           SKY/WX    TMP DP  RH WIND       PRES   REMARKS
DENVER, CO     PTCLDY    62  31  31 W25G37    30.00R
GRAND CANYON,  CLEAR     37  19  48 NE3       30.28R
HONOLULU, HI   CLOUDY    72  72 100 N5        30.15R
KAHULUI, MAUI  PTCLDY    77  64  65 NE5       30.12R
LAKE TAHOE, CA PTCLDY    45  26  47 CALM      30.29R
LAS VEGAS, NV  CLEAR     76  19  11 S10       29.97R
MAMMOTH LAKES, FAIR      48  14  25 W10       30.33R
MEXICO CITY, M CLOUDY    52  46  82 E10       30.49R
PHOENIX, AZ    PTCLDY    80  24  12 E6        29.96R
PORTLAND, OR   PTCLDY    52  43  71 E8        30.32F
RENO, NV       PTCLDY    57  14  18 CALM      30.26R
SALT LAKE CITY CLEAR     53  33  46 N5        30.22R
SAN DIEGO, CA  CLOUDY    65  59  81 NW5       30.06S
SAN FRANCISCO, PTCLDY    55  52  89 W21       30.11R
SAN JOSE, CA   CLEAR     60  50  69 N5        30.10S
SEATTLE, WA    CLOUDY    52  41  66 SW6       30.35R
TIJUANA, MEX   CLOUDY    61  57  88 CALM      30.09R

$$

STATION/POSITION TIME  TEMP    WIND        PRES    VSBY  WAVE
                       AIR SEA DIR/SP/G                  HT/PER
                 (UTC) (F)     (DEG/KT/KT) (MB)    (MI)  (FT/S)
POINT ARGUELLO B NOT AVBL
WEST SANTA BARBA 0500   58 59  320/ 16/ 19 1016.1R         7/13
POINT CONCEPTION NOT AVBL
EAST SANTA BARBA NOT AVBL
SANTA MONICA BAY 0500   62 64  300/  6/  8 1017.3R         3/17



USA.gov is the U.S. government's official web portal to all federal, state and local government web resources and services.